Regional Weather Roundup
Issued by NWS

Home | Current Version | Previous Version | Graphics & Text | Print | Product List | Glossary On
Versions: 1 2 3 4 5 6 7 8 9 10 11 12 13 14 15 16 17 18 19 20 21 22 23 24 25 26 27 28 29 30 31 32 33 34 35 36 37 38 39 40 41 42 43 44 45 46 47 48 49 50
544
ASUS45 KBOU 242107
RWRCO

WEATHER ROUNDUP FOR COLORADO
NATIONAL WEATHER SERVICE DENVER/BOULDER CO
300 PM MDT SUN JUL 24 2016

NOTE: "FAIR" INDICATES FEW OR NO CLOUDS BELOW 12000 FEET WITH NO
SIGNIFICANT WEATHER AND/OR OBSTRUCTIONS TO VISIBILITY.

COZ001>005-013-030-031-242200-
...NORTHWEST COLORADO...

CITY           SKY/WX    TMP DP  RH WIND       PRES   REMARKS
CRAIG          FAIR      89  29  11 NW10G23   30.18F
HAYDEN         FAIR      84  36  17 SW7G16    30.21F
MEEKER         FAIR      84  44  24 S8        30.19F
MOUNT WERNER   NOT AVBL
STEAMBOAT SPGS FAIR      80  31  16 S8G30     30.26R
WALDEN         FAIR      81  27  13 W15G25    30.36F
$$

COZ006>008-011-242200-
...WEST CENTRAL VALLEYS...

CITY           SKY/WX    TMP DP  RH WIND       PRES   REMARKS
GRAND JUNCTION FAIR      98  43  15 VRB7      30.04F
MONTROSE       FAIR      94  36  13 N9        30.13F
EAGLE          MOSUNNY   90  30  12 SW20G30   30.20F
RIFLE          FAIR      98  33  10 W17G25    30.09F
DELTA          FAIR      97  36  11 CALM      30.08S
NUCLA          FAIR      86  32  14 NE13G28   30.19S
$$

COZ017>023-064>068-242200-
...SOUTHWEST COLORADO...

CITY           SKY/WX    TMP DP  RH WIND       PRES   REMARKS
DURANGO        PTSUNNY   85  40  20 N8        30.22S
CORTEZ         FAIR      91  45  20 S8        30.14F
PAGOSA SPRINGS PTSUNNY   81  32  16 NW17G28   30.35R
TELLURIDE      FAIR      66  48  51 SE10      30.50R
WOLF CREEK PAS PTSUNNY   63  34  34 SW10G17   30.72F
$$

COZ009-010-012-014-032>034-037-058>063-242200-
...CENTRAL COLORADO...

CITY           SKY/WX    TMP DP  RH WIND       PRES   REMARKS
ASPEN          FAIR      80  35  19 NW16G30   30.31F
BUENA VISTA    FAIR      84  29  13 NE8       30.31F
COPPER MTN     FAIR      66  28  24 N3        30.69F
BERTHOUD PASS  CLOUDY    54  37  54 NE6G31    30.74R
COTTONWOOD PAS FAIR      77  30  18 E3        30.49F
GUNNISON       FAIR      82  34  17 CALM      30.32F
KREMMLING      FAIR      77  34  20 N8        30.32S
LEADVILLE      FAIR      75  23  14 NW12G22   30.49F
MONARCH PASS   FAIR      70  23  17 MISG      30.79S
SALIDA         FAIR      85  34  15 S5        30.33F
SUNLIGHT       LGT RAIN  66  32  28 CALM      30.61F
WILKERSON PASS FAIR      61  34  36 NE12G25   30.67S
$$

COZ069>075-242200-
...SAN LUIS VALLEY/SANGRE DE CRISTO MOUNTAINS...

CITY           SKY/WX    TMP DP  RH WIND       PRES   REMARKS
ALAMOSA        FAIR      79  32  18 NW32G45   30.31S
LA VETA PASS   TSTM      61  50  67 E7G17     30.55S
SAGUACHE       PTSUNNY   68  50  52 S14G21    30.37S
$$

COZ035-036-038>040-242200-
...NORTHERN COLORADO FRONT RANGE...

CITY           SKY/WX    TMP DP  RH WIND       PRES   REMARKS
DENVER INTL AP FAIR      92  38  15 CALM      30.10F
DMNS CITY PARK   N/A     88  36  16 W10       30.12S
AURORA         PTSUNNY   92  37  14 N5        30.13F
FRONT RANGE AP MOSUNNY   95  45  17 SE15G22   30.12F
ERIE MUNI ARPT FAIR      87  50  27 NW12G18   30.11R
BOULDER MUN AP FAIR      90  52  27 N13       30.13S
CENTENNIAL     PTSUNNY   89  27  10 S5        30.15S
BROOMFIELD     PTSUNNY   90  48  24 NW13      30.16F
LONGMONT       FAIR      93  56  28 N15G21    30.13S
$$

COZ041-046-047-076>085-087-088-242200-
...PIKES PEAK/PALMER DIVIDE AND SOUTHERN FOOTHILLS...

CITY           SKY/WX    TMP DP  RH WIND       PRES   REMARKS
COLO. SPRINGS  TSTM      78  39  24 SE10G26   30.22S
A. F. ACADEMY  PTSUNNY   76  43  30 S3        30.24R
SCHRIEVER AFB  NOT AVBL
ELLICOTT       FAIR     N/A N/A N/A S5        30.20F
FALCON         NOT AVBL
FORT CARSON    TSTM      68  52  56 MISG      30.22R
LIMON          FAIR      90  55  30 SE18G25   30.15F
MONUMENT HILL  PTSUNNY   77  46  33 S18       30.28R
TRINIDAD       NOT AVBL
$$

COZ042>045-048>051-090-091-242200-
...NORTHEAST COLORADO...

CITY           SKY/WX    TMP DP  RH WIND       PRES   REMARKS
GREELEY ARPT   FAIR      90  63  40 SE14G20   30.11F
AKRON          FAIR      84  58  40 SE20G25   30.13F
BURLINGTON     FAIR      91  53  27 E16       30.10F
WRAY           FAIR      90  54  29 E14G21    30.10S
STERLING       FAIR      90  63  40 SE14      30.09F
HOLYOKE        FAIR      86  55  35 W13       30.12F
FORT MORGAN    FAIR      89  55  30 E12G21    30.12S
$$

COZ086-089-092>099-242200-
...SOUTHEAST COLORADO...

CITY           SKY/WX    TMP DP  RH WIND       PRES   REMARKS
PUEBLO         FAIR      93  48  21 SE12      30.07F
LA JUNTA       FAIR      91  60  35 E13       30.06F
LAMAR          FAIR      94  62  34 SE9       30.01F
SPRINGFIELD      N/A     88  58  36 E9G17     30.10F
$$




USA.gov is the U.S. government's official web portal to all federal, state and local government web resources and services.